Zurück zum Katalog

NOAA 16 DEB

AktivPO
NORAD 42374·DEBRIS·🇺🇸 United States

Gestartet Sep 21, 2000 von Vandenberg Space Force Base

Loading…

Nächste Überflüge (nächste 24 Stunden)

TLE

AktuellSource: Space-Track

Epoche: Sep 13, 2026, 21:48 UTC

1 42374U 00055RS  26256.90894720  .00035793  00000-0  39242-2 0  9999
2 42374  98.8346  58.9652 0006449 116.1764 244.0113 14.87607399541935

Verfolge NOAA 16 DEB in Echtzeit mit AllMySat

Download on the App Store